Weather Roundup
Issued by NWS

Home | Current Version | Previous Version | Text Only | Print | Product List | Glossary On
Versions: 1 2 3 4 5 6 7 8 9 10 11 12 13 14 15 16 17 18 19 20 21 22 23 24 25 26 27 28 29 30 31 32 33 34 35 36 37 38 39 40 41 42 43 44 45 46 47 48 49 50
319
NZUS93 KARX 221710
HRRWXR

CURRENT HOURLY OBSERVATIONS ACROSS
MUCH OF THE UPPER MISSISSIPPI VALLEY
NATIONAL WEATHER SERVICE LA CROSSE WI
1100 AM CST SUN JAN 22 2017


...SOUTHEAST MINNESOTA...


CITY           SKY/WX    TMP DP  RH WIND       PRES   REMARKS
ROCHESTER      FOG       34  34 100 NW7       29.69R VSB 1/4 WCI  28
ROCHESTER/MAYO CLOUDY    35  36 100 NW5       29.70R WCI  31
WINONA         CLOUDY    36  36 100 NW3       29.70R FOG
AUSTIN         FOG       34  34 100 NW6       29.70R VSB 1   WCI  29
ALBERT LEA     CLOUDY    36  36 100 CALM      29.70S FOG
DODGE CENTER   FOG       34  34 100 CALM      29.69S VSB 3/4
PRESTON        FOG       33  32  97 NW6       29.69R VSB 1/4 WCI  28
OWATONNA       CLOUDY    36  34  93 NW7       29.71R FOG     WCI  30
FARIBAULT      NOT AVBL
$$

...ELSEWHERE IN MINNESOTA...


CITY           SKY/WX    TMP DP  RH WIND       PRES   REMARKS
MINNEAPOLIS    CLOUDY    38  34  85 N5        29.72R WCI  34
INTNL FALLS    FOG       35  34  96 N3        29.69S VSB 1/2
DULUTH         CLOUDY    35  34  96 NW5       29.67R FOG     WCI  31
RED WING       CLOUDY    36  36 100 NW3       29.70S FOG
REDWOOD FALLS  CLOUDY    35  34  96 NW10      29.75R WCI  27
MANKATO        CLOUDY    35  35 100 NW9       29.73S FOG     WCI  28
WORTHINGTON    MIX PCPN  35  34  96 NW13      29.75R FOG     WCI  26
FAIRMONT       CLOUDY    35  35 100 NW9       29.74R FOG     WCI  28
$$

...SOUTHWEST WISCONSIN...


CITY           SKY/WX    TMP DP  RH WIND       PRES   REMARKS
LA CROSSE      CLOUDY    40  36  86 CALM      29.68S FOG
PRAIRIE DU CHI CLOUDY    36  35  96 CALM      29.69R FOG
BOSCOBEL       CLOUDY    39  37  92 CALM      29.68R FOG
LONE ROCK      CLOUDY    38  36  92 W5        29.68R FOG     WCI  34
PLATTEVILLE    CLOUDY    37  37 100 SW5       29.67S WCI  34
FORT MC COY    CLOUDY    35  35 100 W3        29.68S FOG
CAMP DOUGLAS   CLOUDY    37  37 100 W7        29.66R FOG     WCI  32
MAUSTON-NEW LI CLOUDY    37  37 100 W3        29.66R FOG
VIROQUA        CLOUDY    35  35 100 NW6       29.66R VSB<1/4 WCI  30
WIS DELLS      CLOUDY    37  37  99 W5        29.65S FOG     WCI  33
$$

...ELSEWHERE IN WISCONSIN...


CITY           SKY/WX    TMP DP  RH WIND       PRES   REMARKS
MILWAUKEE      CLOUDY    45  40  82 NW5       29.65F
MADISON        CLOUDY    39  37  92 CALM      29.66F FOG
GREEN BAY      FOG       38  38 100 SW5       29.65S VSB 3/4 WCI  34
EAU CLAIRE     CLOUDY    36  35  96 NW5       29.67S WCI  32
BLACK RVR FLS  CLOUDY    36  36 100 W5        29.67R FOG     WCI  32
MEDFORD        CLOUDY    34  34  99 CALM      29.64R FOG
WAUSAU         CLOUDY    35  35 100 W5        29.63S FOG     WCI  31
WIS RAPIDS     CLOUDY    36  36 100 NW3       29.66R
MARSHFIELD     FOG       35  34  96 W5        29.64R VSB 1/4 WCI  31
RICE LAKE      CLOUDY    35  35  99 CALM      29.70R
$$

...NORTHEAST IOWA...


CITY           SKY/WX    TMP DP  RH WIND       PRES   REMARKS
WATERLOO       CLOUDY    35  32  88 MISG      29.70R
DUBUQUE        CLOUDY    37  36  96 CALM      29.67S
DECORAH        CLOUDY    34  34 100 NW5       29.67S FOG     WCI  30
MASON CITY       N/A     34  33  96 NW8       29.72R FOG     WCI  27
CHARLES CITY   CLOUDY    34  34 100 NW6       29.71R FOG     WCI  29
OELWEIN        CLOUDY    34  34 100 NW5       29.70R FOG     WCI  30
$$

...ELSEWHERE IN IOWA...


CITY           SKY/WX    TMP DP  RH WIND       PRES   REMARKS
DES MOINES     CLOUDY    36  34  92 NW9       29.73R FOG     WCI  29
IOWA CITY      CLOUDY    36  34  92 NW7       29.72R FOG     WCI  30
FORT DODGE     CLOUDY    34  32  93 NW5       29.75R WCI  30
MARSHALLTOWN   CLOUDY    35  35 100 NW9       29.70R FOG     WCI  28
CEDAR RAPIDS   CLOUDY    33  33 100 NW8       29.69R FOG     WCI  26
$$

...NORTHERN ILLINOIS...


CITY           SKY/WX    TMP DP  RH WIND       PRES   REMARKS
CHICAGO-OHARE  CLOUDY    44  39  82 E5        29.64S
CHICAGO-MIDWAY CLOUDY    42  40  92 E8        29.64S FOG
MOLINE         CLOUDY    39  36  89 CALM      29.67S FOG
ROCKFORD       CLOUDY    38  36  92 NW5       29.68S FOG     WCI  34
PEORIA         CLOUDY    44  40  85 NE9       29.64F
$$

NOTE: "FAIR" INDICATES FEW OR NO CLOUDS BELOW 12,000 FEET WITH NO
SIGNIFICANT WEATHER AND/OR OBSTRUCTIONS TO VISIBILITY. WIND
SPEEDS ARE IN MILES-PER-HOUR.




USA.gov is the U.S. government's official web portal to all federal, state and local government web resources and services.